FW4270 Weather Reports


Display with metric or nautical units.
time (UTC)temp
F
wind
direction
speed
MPH
gust
MPH
rain 1hr
in
rain 24hr
in
rain mn
in
humidity
%
barometer
mb
20191114164210 64 307 1.0 4.0 0.00 0.00 0.00 73 1020.6
20191114163712 64 306 2.0 6.0 0.00 0.00 0.00 72 1020.5
20191114163210 64 278 2.0 6.0 0.00 0.00 0.00 72 1020.3
20191114162708 65 297 3.0 6.0 0.00 0.00 0.00 70 1020.3
20191114162208 65 246 2.0 6.0 0.00 0.00 0.00 69 1020.3
20191114161708 65 255 2.0 4.0 0.00 0.00 0.00 69 1020.5
20191114161210 65 226 4.0 7.0 0.00 0.00 0.00 68 1020.5
20191114160706 65 252 5.0 7.0 0.00 0.00 0.00 69 1020.7
20191114160208 65 229 6.0 9.0 0.00 0.00 0.00 69 1020.7
20191114155708 65 225 7.0 11.0 0.00 0.00 0.00 69 1020.7
20191114155209 65 226 7.0 11.0 0.00 0.00 0.00 69 1020.9
20191114154709 65 227 7.0 13.0 0.00 0.00 0.00 69 1020.9
20191114154206 66 232 7.0 13.0 0.00 0.00 0.00 69 1020.8
20191114153706 66 207 6.0 11.0 0.00 0.00 0.00 69 1020.8
20191114153208 66 227 3.0 10.0 0.00 0.00 0.00 70 1020.7
20191114152704 67 186 2.0 4.0 0.00 0.00 0.00 68 1020.6
20191114152204 67 213 3.0 6.0 0.00 0.00 0.00 66 1020.6
20191114151700 67 197 3.0 6.0 0.00 0.00 0.00 65 1020.6
20191114151200 67 193 2.0 6.0 0.00 0.00 0.00 63 1020.6
20191114150700 67 144 1.0 5.0 0.00 0.00 0.00 62 1020.5
20191114150202 67 97 0.0 2.0 0.00 0.00 0.00 62 1020.3
20191114145700 67 97 1.0 3.0 0.00 0.00 0.00 62 1020.1
20191114145202 67 97 1.0 3.0 0.00 0.00 0.00 63 1020.1
20191114144656 67 97 1.0 3.0 0.00 0.00 0.00 63 1020.0
20191114144158 67 97 1.0 3.0 0.00 0.00 0.00 63 1019.9
20191114143658 67 97 2.0 5.0 0.00 0.00 0.00 64 1020.0
20191114143158 67 98 3.0 7.0 0.00 0.00 0.00 64 1019.9
20191114142656 67 84 3.0 7.0 0.00 0.00 0.00 64 1019.8
20191114142158 67 93 3.0 7.0 0.00 0.00 0.00 64 1019.9
20191114141701 67 91 4.0 9.0 0.00 0.00 0.00 64 1019.7
20191114141201 67 111 4.0 9.0 0.00 0.00 0.00 65 1019.8
20191114140659 67 90 3.0 6.0 0.00 0.00 0.00 67 1019.8
20191114140159 67 99 2.0 6.0 0.00 0.00 0.00 67 1019.8
20191114135658 67 61 2.0 4.0 0.00 0.00 0.00 67 1019.7
20191114135156 67 96 2.0 3.0 0.00 0.00 0.00 67 1019.7
20191114134652 67 96 2.0 7.0 0.00 0.00 0.00 67 1019.7
20191114134155 67 96 1.0 7.0 0.00 0.00 0.00 66 1019.7
20191114133652 67 98 1.0 3.0 0.00 0.00 0.00 67 1019.7
20191114133152 67 98 1.0 3.0 0.00 0.00 0.00 66 1019.6
20191114132654 68 126 1.0 3.0 0.00 0.00 0.00 66 1019.5
20191114132148 68 126 1.0 3.0 0.00 0.00 0.00 65 1019.4
20191114131648 68 126 1.0 3.0 0.00 0.00 0.00 65 1019.4
20191114131150 68 126 1.0 4.0 0.00 0.00 0.00 66 1019.4
20191114130650 67 121 1.0 4.0 0.00 0.00 0.00 66 1019.3
20191114130148 67 110 1.0 3.0 0.00 0.00 0.00 66 1019.3
20191114125644 68 108 1.0 3.0 0.00 0.00 0.00 66 1019.3
20191114125146 68 142 1.0 2.0 0.00 0.00 0.00 66 1019.3
20191114124640 68 142 1.0 3.0 0.00 0.00 0.00 66 1019.2
20191114124137 68 142 0.0 3.0 0.00 0.00 0.00 66 1019.2
20191114123638 68 277 0.0 1.0 0.00 0.00 0.00 65 1019.2
20191114123138 68 277 0.0 1.0 0.00 0.00 0.00 66 1019.1
20191114122636 68 277 0.0 1.0 0.00 0.00 0.00 66 1019.0
20191114122136 68 277 0.0 1.0 0.00 0.00 0.00 66 1018.9
20191114121640 68 277 0.0 1.0 0.00 0.00 0.00 66 1019.0
20191114121131 69 277 0.0 1.0 0.00 0.00 0.00 64 1018.9
20191114120628 69 277 0.0 0.0 0.00 0.00 0.00 63 1018.9
20191114120126 69 277 0.0 1.0 0.00 0.00 0.00 63 1018.8
20191114115625 69 277 0.0 1.0 0.00 0.00 0.00 63 1018.9
20191114115125 69 277 0.0 1.0 0.00 0.00 0.00 61 1018.9
20191114114627 69 277 0.0 2.0 0.00 0.00 0.00 61 1019.0
20191114114125 69 277 0.0 2.0 0.00 0.00 0.00 62 1018.9
20191114113622 69 277 0.0 1.0 0.00 0.00 0.00 62 1019.0
20191114113120 70 277 0.0 2.0 0.00 0.00 0.00 60 1018.9
20191114112623 70 277 1.0 3.0 0.00 0.00 0.00 59 1019.0
20191114112113 70 277 1.0 3.0 0.00 0.00 0.00 58 1019.0
20191114111614 70 279 1.0 3.0 0.00 0.00 0.00 58 1018.9
20191114111116 70 277 1.0 3.0 0.00 0.00 0.00 58 1018.9
20191114110611 71 277 1.0 3.0 0.00 0.00 0.00 57 1018.9
20191114110110 71 301 1.0 3.0 0.00 0.00 0.00 57 1018.9
20191114105610 71 302 2.0 4.0 0.00 0.00 0.00 56 1018.9
20191114105110 71 283 2.0 4.0 0.00 0.00 0.00 56 1019.0
20191114104612 71 271 2.0 4.0 0.00 0.00 0.00 56 1019.0
20191114104111 71 273 2.0 5.0 0.00 0.00 0.00 56 1019.0
20191114103616 71 292 2.0 5.0 0.00 0.00 0.00 56 1019.0
20191114103104 71 269 2.0 5.0 0.00 0.00 0.00 56 1018.9
20191114102604 71 240 3.0 6.0 0.00 0.00 0.00 56 1019.0
20191114102103 71 325 3.0 6.0 0.00 0.00 0.00 56 1018.9
20191114101606 71 323 2.0 5.0 0.00 0.00 0.00 56 1019.0
20191114101107 71 329 2.0 5.0 0.00 0.00 0.00 55 1019.1
20191114100605 71 267 2.0 4.0 0.00 0.00 0.00 55 1019.1
20191114100100 72 238 3.0 7.0 0.00 0.00 0.00 55 1019.1
20191114095557 71 267 3.0 7.0 0.00 0.00 0.00 55 1019.2
20191114095104 72 237 2.0 6.0 0.00 0.00 0.00 54 1019.2
20191114094600 72 257 2.0 5.0 0.00 0.00 0.00 55 1019.1
20191114094100 72 301 3.0 6.0 0.00 0.00 0.00 54 1019.2
20191114093559 72 269 3.0 7.0 0.00 0.00 0.00 54 1019.2
20191114093056 72 258 3.0 7.0 0.00 0.00 0.00 54 1019.3
20191114092555 72 253 3.0 6.0 0.00 0.00 0.00 53 1019.3
20191114092052 72 253 2.0 5.0 0.00 0.00 0.00 53 1019.3
20191114091604 73 299 2.0 3.0 0.00 0.00 0.00 52 1019.4
20191114091053 73 265 2.0 4.0 0.00 0.00 0.00 54 1019.3
20191114090559 72 283 2.0 4.0 0.00 0.00 0.00 52 1019.4
20191114090050 72 289 2.0 3.0 0.00 0.00 0.00 53 1019.5
20191114085548 72 275 2.0 6.0 0.00 0.00 0.00 53 1019.5
20191114085047 72 323 3.0 7.0 0.00 0.00 0.00 53 1019.5
20191114084549 72 256 3.0 7.0 0.00 0.00 0.00 52 1019.5
20191114084051 73 274 2.0 6.0 0.00 0.00 0.00 52 1019.5
20191114083547 72 309 2.0 7.0 0.00 0.00 0.00 53 1019.5
20191114083041 72 261 2.0 7.0 0.00 0.00 0.00 52 1019.5
20191114082541 72 270 2.0 5.0 0.00 0.00 0.00 53 1019.6
20191114082046 72 269 2.0 8.0 0.00 0.00 0.00 54 1019.6
20191114081541 71 248 3.0 8.0 0.00 0.00 0.00 54 1019.7
20191114081041 71 274 3.0 8.0 0.00 0.00 0.00 53 1019.8
20191114080541 71 303 2.0 6.0 0.00 0.00 0.00 53 1019.9
20191114080037 72 285 2.0 6.0 0.00 0.00 0.00 53 1020.0
20191114075536 72 330 3.0 6.0 0.00 0.00 0.00 52 1020.1
20191114075037 72 279 3.0 7.0 0.00 0.00 0.00 51 1020.2
20191114074538 72 205 3.0 7.0 0.00 0.00 0.00 50 1020.2
20191114074035 73 254 2.0 4.0 0.00 0.00 0.00 51 1020.3
20191114073540 72 265 2.0 6.0 0.00 0.00 0.00 50 1020.5
20191114073034 72 230 2.0 7.0 0.00 0.00 0.00 51 1020.5
20191114072532 72 271 3.0 7.0 0.00 0.00 0.00 50 1020.6
20191114072029 72 314 3.0 7.0 0.00 0.00 0.00 51 1020.7
20191114071531 72 300 2.0 7.0 0.00 0.00 0.00 50 1020.8
20191114071030 72 264 2.0 7.0 0.00 0.00 0.00 51 1020.9
20191114070529 72 259 4.0 9.0 0.00 0.00 0.00 51 1020.9
20191114070024 72 258 6.0 10.0 0.00 0.00 0.00 51 1020.9
20191114065526 72 240 6.0 10.0 0.00 0.00 0.00 50 1021.0
20191114065029 72 268 4.0 8.0 0.00 0.00 0.00 49 1021.0
20191114064525 72 219 3.0 7.0 0.00 0.00 0.00 50 1020.9
20191114064020 72 243 2.0 7.0 0.00 0.00 0.00 48 1020.9
20191114063519 72 274 1.0 5.0 0.00 0.00 0.00 49 1021.0
20191114063016 72 348 1.0 4.0 0.00 0.00 0.00 50 1020.9
20191114062513 72 279 1.0 4.0 0.00 0.00 0.00 53 1021.0
20191114062013 71 262 2.0 4.0 0.00 0.00 0.00 52 1021.0
20191114061518 71 242 1.0 3.0 0.00 0.00 0.00 53 1021.1
20191114061014 71 242 1.0 4.0 0.00 0.00 0.00 54 1021.2
20191114060515 70 238 1.0 4.0 0.00 0.00 0.00 52 1021.2
20191114060015 70 273 2.0 4.0 0.00 0.00 0.00 53 1021.3
20191114055515 70 226 2.0 4.0 0.00 0.00 0.00 54 1021.2
20191114055013 69 205 2.0 4.0 0.00 0.00 0.00 57 1021.3
20191114054513 69 218 2.0 4.0 0.00 0.00 0.00 57 1021.2
20191114054013 69 205 2.0 4.0 0.00 0.00 0.00 58 1021.1
20191114053516 69 207 3.0 5.0 0.00 0.00 0.00 58 1021.3
20191114053013 68 214 3.0 5.0 0.00 0.00 0.00 60 1021.4
20191114052513 68 213 3.0 6.0 0.00 0.00 0.00 61 1021.6
20191114052015 68 214 2.0 6.0 0.00 0.00 0.00 61 1021.4
20191114051513 68 191 2.0 4.0 0.00 0.00 0.00 62 1021.6
20191114051011 68 168 1.0 4.0 0.00 0.00 0.00 63 1021.6
20191114050509 67 192 1.0 3.0 0.00 0.00 0.00 62 1021.6
20191114050006 67 192 1.0 3.0 0.00 0.00 0.00 61 1021.7
20191114045459 67 192 1.0 3.0 0.00 0.00 0.00 62 1021.8
20191114045001 67 130 1.0 3.0 0.00 0.00 0.00 63 1021.9
20191114044502 66 125 2.0 3.0 0.00 0.00 0.00 64 1021.9
20191114044000 66 125 1.0 3.0 0.00 0.00 0.00 63 1021.9
20191114043457 66 82 1.0 2.0 0.00 0.00 0.00 64 1021.7
20191114042958 66 82 1.0 2.0 0.00 0.00 0.00 64 1021.7
20191114042459 66 5 1.0 2.0 0.00 0.00 0.00 65 1021.6
20191114041953 66 5 0.0 2.0 0.00 0.00 0.00 65 1021.5
20191114041453 65 309 0.0 1.0 0.00 0.00 0.00 65 1021.4
20191114041000 66 309 0.0 1.0 0.00 0.00 0.00 64 1021.2
20191114040456 65 309 0.0 1.0 0.00 0.00 0.00 66 1021.2
20191114035958 64 309 0.0 2.0 0.00 0.00 0.00 66 1021.3
20191114035455 64 309 1.0 3.0 0.00 0.00 0.00 67 1021.2
20191114034953 64 309 1.0 3.0 0.00 0.00 0.00 67 1021.2
20191114034453 63 279 1.0 3.0 0.00 0.00 0.00 68 1021.3
20191114033953 63 279 2.0 4.0 0.00 0.00 0.00 68 1021.2
20191114033453 63 269 2.0 4.0 0.00 0.00 0.00 68 1021.2
20191114032955 62 249 2.0 3.0 0.00 0.00 0.00 68 1021.1
20191114032453 63 249 1.0 2.0 0.00 0.00 0.00 67 1021.2
20191114031955 63 250 1.0 2.0 0.00 0.00 0.00 67 1021.1
20191114031452 63 260 1.0 2.0 0.00 0.00 0.00 67 1021.0
20191114030953 62 260 0.0 2.0 0.00 0.00 0.00 68 1021.0
20191114030455 62 261 0.0 2.0 0.00 0.00 0.00 68 1021.1
20191114025949 62 261 0.0 2.0 0.00 0.00 0.00 68 1021.1
20191114025448 62 261 0.0 3.0 0.00 0.00 0.00 67 1021.0
20191114024939 63 261 2.0 5.0 0.00 0.00 0.00 65 1020.8
20191114024440 62 260 2.0 5.0 0.00 0.00 0.00 66 1020.8
20191114023941 62 266 1.0 3.0 0.00 0.00 0.00 67 1020.8
20191114023438 62 284 1.0 2.0 0.00 0.00 0.00 68 1020.7
20191114022937 61 277 1.0 5.0 0.00 0.00 0.00 68 1020.8
20191114022435 62 301 2.0 5.0 0.00 0.00 0.00 67 1020.6
20191114021935 62 306 2.0 5.0 0.00 0.00 0.00 67 1020.5
20191114021435 62 308 1.0 5.0 0.00 0.00 0.00 66 1020.5
20191114020935 62 293 2.0 4.0 0.00 0.00 0.00 67 1020.5
20191114020432 61 277 3.0 7.0 0.00 0.00 0.00 68 1020.2
20191114015935 61 258 3.0 8.0 0.00 0.00 0.00 68 1020.2
20191114015433 61 259 3.0 8.0 0.00 0.00 0.00 69 1020.3
20191114014932 60 286 4.0 8.0 0.00 0.00 0.00 70 1020.2
20191114014435 60 266 4.0 8.0 0.00 0.00 0.00 71 1020.1
20191114013934 60 280 5.0 11.0 0.00 0.00 0.00 71 1020.1
20191114013429 60 261 5.0 11.0 0.00 0.00 0.00 71 1020.0
20191114012933 61 263 4.0 8.0 0.00 0.00 0.00 70 1020.0
20191114012431 61 259 3.0 8.0 0.00 0.00 0.00 70 1019.9
20191114011927 61 255 2.0 7.0 0.00 0.00 0.00 70 1019.8
20191114011427 61 221 2.0 5.0 0.00 0.00 0.00 70 1019.7
20191114010929 61 221 3.0 5.0 0.00 0.00 0.00 70 1019.6
20191114010428 61 248 2.0 4.0 0.00 0.00 0.00 70 1019.5
20191114005929 61 247 1.0 3.0 0.00 0.00 0.00 70 1019.4
20191114005424 60 295 1.0 3.0 0.00 0.00 0.00 72 1019.2
20191114004922 60 318 1.0 3.0 0.00 0.00 0.00 72 1019.1
20191114004423 60 318 2.0 4.0 0.00 0.00 0.00 72 1019.0
20191114003924 60 317 3.0 4.0 0.00 0.00 0.00 72 1019.0
20191114003425 60 321 3.0 4.0 0.00 0.00 0.00 72 1019.0
20191114002921 61 317 3.0 4.0 0.00 0.00 0.00 72 1018.9
20191114002415 61 330 2.0 4.0 0.00 0.00 0.00 71 1018.9
20191114001912 61 5 1.0 3.0 0.00 0.00 0.00 71 1018.9
20191114001412 61 5 1.0 3.0 0.00 0.00 0.00 71 1018.8
20191114000912 61 9 1.0 2.0 0.00 0.00 0.00 71 1018.8
20191114000414 61 0 2.0 3.0 0.00 0.00 0.00 72 1018.8
20191113235915 61 0 2.0 4.0 0.00 0.00 0.00 72 1018.8
20191113235411 61 343 1.0 4.0 0.00 0.00 0.00 72 1018.8
20191113234908 61 345 2.0 3.0 0.00 0.00 0.00 72 1018.8
20191113234409 61 343 1.0 3.0 0.00 0.00 0.00 73 1018.9
20191113233910 61 355 1.0 2.0 0.00 0.00 0.00 73 1018.9
20191113233409 61 355 1.0 3.0 0.00 0.00 0.00 74 1018.9
20191113232913 61 355 2.0 3.0 0.00 0.00 0.00 74 1018.7
20191113232405 60 348 2.0 4.0 0.00 0.00 0.00 75 1018.7
20191113231904 60 329 3.0 4.0 0.00 0.00 0.00 76 1018.9
20191113231405 60 310 3.0 4.0 0.00 0.00 0.00 76 1018.7
20191113230902 60 320 3.0 5.0 0.00 0.00 0.00 76 1018.7
20191113230401 60 320 3.0 4.0 0.00 0.00 0.00 76 1018.7
20191113225900 61 318 2.0 3.0 0.00 0.00 0.00 75 1018.8
20191113225356 61 323 2.0 4.0 0.00 0.00 0.00 75 1018.7
20191113224854 61 322 2.0 4.0 0.00 0.00 0.00 75 1018.8
20191113224359 61 337 1.0 3.0 0.00 0.00 0.00 75 1018.8
20191113223857 61 19 1.0 3.0 0.00 0.00 0.00 74 1018.7
20191113223354 62 19 1.0 3.0 0.00 0.00 0.00 74 1018.7
20191113222854 62 19 1.0 3.0 0.00 0.00 0.00 73 1018.7
20191113222351 61 46 1.0 3.0 0.00 0.00 0.00 74 1018.8
20191113221850 61 48 2.0 4.0 0.00 0.00 0.00 76 1019.0
20191113221346 61 70 1.0 4.0 0.00 0.00 0.00 76 1019.0
20191113220848 61 70 1.0 3.0 0.00 0.00 0.00 77 1019.1
20191113220349 61 71 1.0 2.0 0.00 0.00 0.00 77 1019.1
20191113215853 61 71 1.0 3.0 0.00 0.00 0.00 77 1019.2
20191113215340 60 71 1.0 3.0 0.00 0.00 0.00 78 1019.2
20191113214841 60 40 1.0 3.0 0.00 0.00 0.00 79 1019.1
20191113214339 60 33 1.0 3.0 0.00 0.00 0.00 78 1019.2
20191113213836 60 9 0.0 1.0 0.00 0.00 0.00 78 1019.1
20191113213342 60 9 0.0 2.0 0.00 0.00 0.00 78 1019.2
20191113212831 60 9 1.0 6.0 0.00 0.00 0.00 78 1019.2
20191113212329 60 5 2.0 6.0 0.00 0.00 0.00 78 1019.3
20191113211827 60 85 3.0 6.0 0.00 0.00 0.00 78 1019.4
20191113211324 60 63 2.0 5.0 0.00 0.00 0.00 78 1019.3
20191113210829 60 17 2.0 6.0 0.00 0.00 0.00 78 1019.4
20191113210316 60 30 2.0 6.0 0.00 0.00 0.00 78 1019.4
20191113205817 60 326 2.0 5.0 0.00 0.00 0.00 78 1019.5
20191113205318 60 355 2.0 5.0 0.00 0.00 0.00 77 1019.4
20191113204818 60 15 2.0 4.0 0.00 0.00 0.00 77 1019.5
20191113204319 60 41 2.0 5.0 0.00 0.00 0.00 77 1019.6
20191113203818 60 61 2.0 5.0 0.00 0.00 0.00 77 1019.8
20191113203310 60 25 2.0 4.0 0.00 0.00 0.00 77 1019.7
20191113202311 60 18 1.0 3.0 0.00 0.00 0.00 77 1019.9
20191113201810 60 26 1.0 4.0 0.00 0.00 0.00 77 1019.9
20191113201317 60 26 2.0 4.0 0.00 0.00 0.00 77 1019.7
20191113200813 59 25 1.0 3.0 0.00 0.00 0.00 76 1019.7
20191113200312 60 340 1.0 3.0 0.00 0.00 0.00 76 1019.9
20191113195807 60 339 2.0 4.0 0.00 0.00 0.00 76 1019.9
20191113195306 60 46 2.0 5.0 0.00 0.00 0.00 76 1019.9
20191113194807 60 19 2.0 5.0 0.00 0.00 0.00 76 1019.8
20191113194302 60 0 1.0 2.0 0.00 0.00 0.00 76 1019.9
20191113193807 59 295 1.0 2.0 0.00 0.00 0.00 76 1019.7
20191113193302 59 295 1.0 2.0 0.00 0.00 0.00 76 1019.7
20191113192801 60 295 1.0 2.0 0.00 0.00 0.00 76 1019.8
20191113192307 60 294 0.0 2.0 0.00 0.00 0.00 76 1019.9
20191113191805 60 294 0.0 2.0 0.00 0.00 0.00 75 1019.8
20191113191304 60 294 0.0 2.0 0.00 0.00 0.00 75 1019.9
20191113190802 60 294 0.0 2.0 0.00 0.00 0.00 75 1019.8
20191113190302 60 295 0.0 1.0 0.00 0.00 0.00 74 1019.9
20191113185805 60 294 0.0 1.0 0.00 0.00 0.00 74 1020.0
20191113185302 60 294 0.0 1.0 0.00 0.00 0.00 73 1020.1
20191113184807 61 294 0.0 0.0 0.00 0.00 0.00 73 1020.0
20191113184300 61 294 0.0 0.0 0.00 0.00 0.00 72 1020.1
20191113183759 61 294 0.0 0.0 0.00 0.00 0.00 72 1020.1
20191113183258 61 294 1.0 3.0 0.00 0.00 0.00 72 1020.0
20191113182758 61 294 1.0 4.0 0.00 0.00 0.00 72 1020.0
20191113182258 62 326 2.0 6.0 0.00 0.00 0.00 71 1020.0
20191113181756 62 287 1.0 6.0 0.00 0.00 0.00 70 1020.1
20191113181253 62 275 2.0 7.0 0.00 0.00 0.00 70 1020.1
20191113180753 62 248 2.0 7.0 0.00 0.00 0.00 69 1020.1
20191113180256 62 253 2.0 6.0 0.00 0.00 0.00 69 1020.1
20191113175752 62 302 2.0 6.0 0.00 0.00 0.00 68 1020.1
20191113175250 62 269 2.0 7.0 0.00 0.00 0.00 68 1020.1
20191113174750 62 257 2.0 7.0 0.00 0.00 0.00 68 1020.2
20191113174244 62 262 2.0 6.0 0.00 0.00 0.00 68 1020.2
20191113173744 62 249 2.0 4.0 0.00 0.00 0.00 69 1020.2
20191113173242 62 284 3.0 6.0 0.00 0.00 0.00 69 1020.1
20191113172744 62 246 2.0 6.0 0.00 0.00 0.00 69 1020.1
20191113172245 62 261 2.0 4.0 0.00 0.00 0.00 70 1020.2
20191113171752 62 239 2.0 4.0 0.00 0.00 0.00 71 1020.2
20191113171240 61 262 1.0 3.0 0.00 0.00 0.00 72 1020.1
20191113170741 61 271 0.0 3.0 0.00 0.00 0.00 73 1020.1
20191113170242 61 311 0.0 0.0 0.00 0.00 0.00 74 1020.0
20191113165740 61 311 0.0 0.0 0.00 0.00 0.00 74 1020.0
20191113165239 61 311 0.0 0.0 0.00 0.00 0.00 74 1020.0
20191113164738 61 311 0.0 0.0 0.00 0.00 0.00 74 1019.9